Location: Newark
(48.1236°N, 0.7169°W)
Time: 17:54:15
(UTC+00:00)

Envisat - Pass Details

Date: 27 November 2019
Orbit: 764 x 766 km, 98.1° (Epoch: 05 December)

Event Time Altitude Azimuth Distance (km) Brightness Sun altitude
Rises 18:59:13 0° 200° (SSW) 3,219 6.5 -26.9°
Reaches altitude 10° 19:01:55 10° 213° (SSW) 2,298 5.9 -27.4°
Maximum altitude 19:06:02 25° 268° (W) 1,528 5.2 -28.1°
Drops below altitude 10° 19:10:10 10° 322° (NW) 2,312 5.9 -28.7°
Sets 19:12:54 0° 336° (NNW) 3,243 6.5 -29.2°
